Location: *
(2.5500°S, 65.9667°W)
Time: 18:41:39
(UTC+00:00)

Courier 1B Rocket - All Passes

Search period start: 23 April 2024 00:00
Search period end: 03 May 2024 00:00
Orbit: 920 x 1201 km, 28.2° (Epoch: 22 April)

Date Brightness Start Highest point End Pass type
(mag) Time Alt. Az. Time Alt. Az. Time Alt. Az.
23 Apr - 00:13:39 10° SSW 00:18:15 18° SSE 00:22:59 10° ESE visible
23 Apr - 02:05:16 10° SW 02:12:29 53° SSE 02:20:01 10° ENE night (unlit)
23 Apr - 03:58:58 10° WSW 04:06:22 50° NNW 04:13:55 10° NE night (unlit)
23 Apr - 05:56:09 10° WNW 06:00:41 16° NNW 06:05:11 10° N night (unlit)
23 Apr - 13:38:05 10° NNW 13:43:26 25° NNE 13:48:33 10° E daylight
23 Apr - 15:30:32 10° WNW 15:36:58 86° SSW 15:43:14 10° ESE daylight
23 Apr - 17:25:41 10° WSW 17:30:32 23° SSW 17:35:26 10° SSE daylight
23 Apr - 23:13:55 10° S 23:16:32 12° SSE 23:19:12 10° SE visible
24 Apr - 01:04:30 10° SW 01:11:03 36° SSE 01:17:55 10° E visible
24 Apr - 02:57:25 10° WSW 03:04:55 73° NNW 03:12:43 10° NE night (unlit)
24 Apr - 04:53:05 10° WNW 04:59:00 24° NNW 05:04:58 10° NNE night (unlit)
24 Apr - 12:37:45 10° NNW 12:42:03 17° NNE 12:46:11 10° ENE daylight
24 Apr - 14:29:21 10° NW 14:35:51 62° NNE 14:42:04 10° ESE daylight
24 Apr - 16:23:35 10° W 16:29:17 35° SSW 16:34:55 10° SE daylight
24 Apr - 18:22:06 10° SSW 18:23:29 11° SSW 18:24:53 10° S daylight
25 Apr - 00:03:59 10° SSW 00:09:34 25° SSE 00:15:25 10° ESE visible
25 Apr - 01:56:10 10° SW 02:03:30 78° SSE 02:11:15 10° ENE visible
25 Apr - 03:50:42 10° W 03:57:26 34° NNW 04:04:20 10° NNE night (unlit)
25 Apr - 05:50:27 10° NW 05:52:07 11° NNW 05:53:47 10° N night (unlit)
25 Apr - 11:38:03 10° N 11:40:29 12° NNE 11:42:52 10° NE daylight
25 Apr - 13:28:23 10° NW 13:34:40 40° NNE 13:40:37 10° E daylight
25 Apr - 15:21:48 10° WNW 15:28:07 54° SSW 15:34:14 10° SE daylight
25 Apr - 17:18:21 10° WSW 17:21:57 16° SSW 17:25:33 10° SSE daylight
25 Apr - 23:03:48 10° SSW 23:08:01 17° SSE 23:12:24 10° ESE visible
26 Apr - 00:55:14 10° SW 01:02:07 53° SSE 01:09:28 10° ENE visible
26 Apr - 02:48:49 10° WSW 02:55:55 49° NNW 03:03:22 10° NE night (unlit)
26 Apr - 04:45:54 10° WNW 04:50:17 16° NNW 04:54:43 10° N night (unlit)
26 Apr - 12:27:36 10° NNW 12:33:22 27° NNE 12:38:50 10° E daylight
26 Apr - 14:20:17 10° WNW 14:27:00 84° SSW 14:33:21 10° ESE daylight
26 Apr - 16:15:39 10° WSW 16:20:35 23° SSW 16:25:25 10° SSE daylight
26 Apr - 22:04:23 10° S 22:06:24 11° SSE 22:08:26 10° SE daylight
26 Apr - 23:54:32 10° SW 00:00:46 35° SSE 00:07:22 10° E visible
27 Apr - 01:47:20 10° WSW 01:54:31 72° NNW 02:02:10 10° NE visible
27 Apr - 03:42:55 10° WNW 03:48:36 23° NNW 03:54:26 10° NNE night (unlit)
27 Apr - 11:27:06 10° NNW 11:31:55 19° NNE 11:36:32 10° ENE daylight
27 Apr - 13:18:59 10° NW 13:25:50 65° NNE 13:32:14 10° ESE daylight
27 Apr - 15:13:25 10° W 15:19:19 35° SSW 15:25:00 10° SE daylight
27 Apr - 17:12:24 10° SSW 17:13:31 10° SSW 17:14:37 10° S daylight
27 Apr - 22:54:07 10° SSW 22:59:22 24° SSE 23:04:53 10° ESE visible
28 Apr - 00:46:11 10° SW 00:53:10 79° SSE 01:00:41 10° ENE visible
28 Apr - 02:40:37 10° W 02:47:01 32° NNW 02:53:44 10° NNE night (unlit)
28 Apr - 04:40:39 10° NNW 04:41:45 10° NNW 04:42:52 10° NNW night (unlit)
28 Apr - 10:27:03 10° N 10:30:18 13° NNE 10:33:27 10° NE daylight
28 Apr - 12:17:54 10° NW 12:24:35 43° NNE 12:30:50 10° E daylight
28 Apr - 14:11:31 10° WNW 14:18:08 53° SSW 14:24:22 10° SE daylight
28 Apr - 16:08:18 10° WSW 16:11:59 16° SSW 16:15:36 10° SSE daylight
28 Apr - 21:54:02 10° SSW 21:57:55 16° SSE 22:01:54 10° ESE daylight
28 Apr - 23:45:18 10° SW 23:51:53 53° SSE 23:58:56 10° ENE visible
29 Apr - 01:38:49 10° WSW 01:45:34 47° NNW 01:52:46 10° NE visible
29 Apr - 03:35:53 10° WNW 03:39:56 15° NNW 03:44:03 10° N night (unlit)
29 Apr - 11:17:01 10° NNW 11:23:13 29° NNE 11:29:03 10° E daylight
29 Apr - 13:09:53 10° WNW 13:16:56 82° SSW 13:23:30 10° ESE daylight
29 Apr - 15:05:27 10° WSW 15:10:35 23° SSW 15:15:32 10° SSE daylight
29 Apr - 20:54:57 10° S 20:56:20 11° SSE 20:57:44 10° SSE daylight
29 Apr - 22:44:40 10° SW 22:50:35 35° SSE 22:56:52 10° E visible
30 Apr - 00:37:24 10° WSW 00:44:13 69° NNW 00:51:35 10° NE visible
30 Apr - 02:32:56 10° WNW 02:38:15 21° NNW 02:43:47 10° NNE visible
30 Apr - 10:16:23 10° NNW 10:21:42 21° NNE 10:26:47 10° ENE daylight
30 Apr - 12:08:30 10° NW 12:15:42 67° NNE 12:22:24 10° ESE daylight
30 Apr - 14:03:06 10° W 14:09:17 35° SSW 14:15:09 10° SE daylight
30 Apr - 16:02:09 10° SSW 16:03:30 11° SSW 16:04:52 10° S daylight
30 Apr - 21:44:17 10° SSW 21:49:16 23° SSE 21:54:27 10° ESE daylight
30 Apr - 23:36:17 10° WSW 23:42:57 80° SSE 23:50:09 10° ENE visible
01 May - 01:30:41 10° W 01:36:43 31° NNW 01:43:07 10° NNE visible
01 May - 09:16:10 10° N 09:20:02 14° NNE 09:23:48 10° NE visible
01 May - 11:07:20 10° NW 11:14:23 45° NNE 11:20:59 10° E daylight
01 May - 13:01:06 10° WNW 13:08:02 53° SSW 13:14:31 10° SE daylight
01 May - 14:58:02 10° WSW 15:01:57 16° SSW 15:05:46 10° SSE daylight
01 May - 20:44:14 10° SSW 20:47:52 15° SSE 20:51:32 10° ESE daylight
01 May - 22:35:26 10° SW 22:41:44 52° SSE 22:48:28 10° ENE visible
02 May - 00:28:56 10° W 00:35:20 44° NNW 00:42:11 10° NE visible
02 May - 02:26:06 10° NW 02:29:37 14° NNW 02:33:14 10° N visible
02 May - 10:06:23 10° NNW 10:12:56 31° NNE 10:19:11 10° E daylight
02 May - 11:59:22 10° WNW 12:06:47 81° SSW 12:13:38 10° ESE daylight
02 May - 13:55:05 10° WSW 14:00:31 24° SSW 14:05:42 10° SSE daylight
02 May - 19:45:24 10° S 19:46:19 10° SSE 19:47:13 10° SSE daylight
02 May - 21:34:49 10° SW 21:40:31 34° SSE 21:46:30 10° E daylight
02 May - 23:27:31 10° WSW 23:34:03 67° NNW 23:41:03 10° NE visible
